User: anonymous   Login
Location: St. Louis
(38.6270°N, 90.1994°W)
Time: 14:26:32
(UTC-06:00)
Language:

JUGNU - Orbit

View from above orbital plane
View from above orbital plane
View from above satellite
View from above satellite

Ground track
Ground track

The orbit data is extracted from the following two-line orbital elements,

1 37839U 11058B   22019.60960289  .00000370  00000-0  55259-4 0  9999
2 37839  19.9629 358.2409 0018706 315.9970 199.1721 14.12743589531064
Epoch (UTC): 19 January 2022 14:37:49
Eccentricity: 0.0018706
inclination: 19.9629°
perigee height: 836 km
apogee height: 863 km
right ascension of ascending node: 358.2409°
argument of perigee: 315.9970°
revolutions per day: 14.12743589
mean anomaly at epoch: 199.1721°
orbit number at epoch: 53106

The dashed part of the orbit path shows where the satellite is in the earth's shadow,  

DLR